Вернуться в каталог

METEOR 3-6

АктивенПогодаPO
NORAD 22969·PAYLOAD·🇷🇺 Russia

Запущен Jan 25, 1994 с Plesetsk Cosmodrome

Loading…

Ближайшие Пролёты (ближайшие 24 часа)

TLE

СвежийSource: Space-Track

Эпоха: Sep 14, 2026, 06:37 UTC

1 22969U 94003A   26257.27634163  .00000150  00000-0  35761-3 0  9999
2 22969  82.5654  24.3775 0014647 349.5775  10.5042 13.17064207568967

Отслеживайте METEOR 3-6 в реальном времени с AllMySat

Download on the App Store